Location: Brantley
(31.5822°N, 86.2569°W)
Time: 21:48:11
(UTC+00:00)

A-11 Canister half - Pass Details

Date: 21 February 2026
Orbit: 1525 x 1683 km, 47.3° (Epoch: 10 March)

Event Time Altitude Azimuth Distance (km) Brightness Sun altitude
Rises 00:18:58 0° 292° (WNW) 4,697 12.8 -9.8°
Reaches altitude 10° 00:22:37 10° 303° (WNW) 3,702 11.8 -10.6°
Maximum altitude 00:30:30 30° 1° (N) 2,478 10.0 -12.3°
Enters shadow 00:37:48 12° 57° (ENE) 3,554 10.4 -13.8°
